"TOA5","AWS1","CR1000","7964","CR1000.Std.14","CPU:AWS1_114.CR1","64363","TBL110"
"TIMESTAMP","RECORD","Wind_spd_WVc(1)","Wind_spd_WVc(2)","Air_Temp_Avg","Humidity_Avg","SW_upper_Wm2_Avg","Rain_Tot","Press_Avg","Issui_Tot","Depth_cm","SR50A_Raw","Quality","Ground_Temp_Avg(1)","Ground_Temp_Avg(2)","SW_lower_Wm2_Avg","Albedo_Avg","SWC_per(1)","SWC_per(2)","Period(1)","Period(2)"
"TS","RN","","","","","","","","","","","","","","","","","","",""
"","","WVc","WVc","Avg","Avg","Avg","Tot","Avg","Tot","Smp","Smp","Smp","Avg","Avg","Avg","Avg","Smp","Smp","Smp","Smp"
"2016-01-28 00:00:00",219949,0.583,334.7,-3.719,69.92,0,0,872.8868,0,43.58,2.763,176,1.626,2.323,0,0,51.27,59.2,33.61,35.5
"2016-01-28 00:10:00",219950,0.515,317.7,-3.713,68.94,0,0,872.87,0,42.66,2.774,170,1.626,2.329,0,0,51.27,59.26,33.61,35.51
"2016-01-28 00:20:00",219951,0.348,349.5,-4.315,71.45,0,0,872.9037,0,43.37,2.766,170,1.626,2.311,0.02275247,0,51.33,59.26,33.62,35.51
"2016-01-28 00:30:00",219952,0.208,66.73,-4.143,70.13,0,0,872.7245,0,43.48,2.766,171,1.626,2.338,0,0,51.33,59.2,33.62,35.5
"2016-01-28 00:40:00",219953,0.163,63.22,-3.859,68.26,0,0,872.6486,0,43.72,2.762,185,1.625,2.327,0.003792058,0,51.33,59.2,33.62,35.5
"2016-01-28 00:50:00",219954,0.182,101.2,-4.183,70.21,0,0,872.6486,0,43.26,2.774,171,1.627,2.307,0.03033675,0,51.27,59.2,33.61,35.5
"2016-01-28 01:00:00",219955,0.283,137.2,-4.983,75.46,0,0,872.6423,0,43.51,2.769,179,1.624,2.276,0.03792125,0,51.27,59.26,33.61,35.51
"2016-01-28 01:10:00",219956,0.375,152.9,-4.489,71.91,0,0,872.6191,0,43.6,2.765,174,1.629,2.278,0.7470493,0,51.33,59.26,33.62,35.51
"2016-01-28 01:20:00",219957,0.961,174.4,-4.026,67.13,0,0,872.459,0,43.76,2.762,173,1.629,2.327,0.9063191,0,51.27,59.2,33.61,35.5
"2016-01-28 01:30:00",219958,0.994,189.1,-3.723,63.61,0,0,872.6234,0,43.38,2.765,175,1.629,2.324,0.6901677,0,51.27,59.2,33.61,35.5
"2016-01-28 01:40:00",219959,0.992,179.8,-3.727,63.48,0,0,872.518,0,43.27,2.767,174,1.629,2.303,0.1554773,0,51.27,59.26,33.61,35.51
"2016-01-28 01:50:00",219960,0.84,170.2,-3.751,62.72,0,0,872.4738,0,43.24,2.767,174,1.629,2.262,0.2275278,0,51.27,59.26,33.61,35.51
"2016-01-28 02:00:00",219961,0.573,171.3,-3.759,62.3,0,0,872.4316,0,43.5,2.764,169,1.629,2.293,0.2009829,0,51.27,59.2,33.61,35.5
"2016-01-28 02:10:00",219962,0.452,187.7,-3.538,61.82,0,0,872.4421,0,43.37,2.764,169,1.629,2.31,0.2351121,0,51.27,59.2,33.61,35.5
"2016-01-28 02:20:00",219963,0.564,183.9,-3.849,64.42,0,0,872.3958,0,43.22,2.767,183,1.629,2.294,0.07963474,0,51.27,59.2,33.61,35.5
"2016-01-28 02:30:00",219964,0.627,184.5,-3.925,65.47,0,0,872.4464,0,43.57,2.765,170,1.629,2.287,0.07963474,0,51.27,59.2,33.61,35.5
"2016-01-28 02:40:00",219965,0.889,175.8,-4.003,66.34,0,0,872.6213,0,43.12,2.768,174,1.629,2.28,0.261657,0,51.27,59.26,33.61,35.51
"2016-01-28 02:50:00",219966,1.37,180.3,-3.782,66.16,0,0,872.3474,0,43.23,2.766,177,1.629,2.304,0.5119376,0,51.27,59.2,33.61,35.5
"2016-01-28 03:00:00",219967,1.265,170.9,-3.413,65.97,0,0,872.1365,0,43.2,2.765,181,1.625,2.303,0.7925552,0,51.33,59.2,33.62,35.5
"2016-01-28 03:10:00",219968,1.112,174.4,-3.418,66.87,0,0,872.0121,0,43.43,2.762,178,1.61,2.318,0.5991566,0,51.33,59.2,33.62,35.5
"2016-01-28 03:20:00",219969,0.529,250.3,-3.121,65.88,0,0,872.0839,0,43.29,2.761,180,1.612,2.307,0.3678366,0,51.27,59.2,33.61,35.5
"2016-01-28 03:30:00",219970,0.676,128.7,-2.98,66.03,0,0,872.1133,0,43.31,2.761,185,1.599,2.315,0.3450838,0,51.33,59.26,33.62,35.51
"2016-01-28 03:40:00",219971,0.471,191.1,-2.533,65.14,0,0,872.0839,0,43.4,2.759,186,1.587,2.321,0.8759821,0,51.33,59.2,33.62,35.5
"2016-01-28 03:50:00",219972,0.458,192.5,-2.431,65.51,0,0,871.9216,0,42.69,2.769,190,1.587,2.321,0.2995783,0,51.27,59.26,33.61,35.51
"2016-01-28 04:00:00",219973,0.69,155.7,-2.548,66.24,0,0,871.9025,0,43.07,2.761,190,1.585,2.319,0.4360903,0,51.27,59.2,33.61,35.5
"2016-01-28 04:10:00",219974,0.276,159.3,-2.629,66.93,0,0,871.8878,0,43.25,2.761,190,1.584,2.318,0.1251387,0,51.27,59.26,33.61,35.51
"2016-01-28 04:20:00",219975,0.668,157.3,-2.272,65.47,0,0,871.7888,0,43.04,2.76,189,1.583,2.317,0.470216,0,51.27,59.2,33.61,35.5
"2016-01-28 04:30:00",219976,0.556,158.5,-2.154,65.66,0,0,871.5443,0,42.7,2.766,189,1.571,2.302,0.3716113,0,51.27,59.26,33.61,35.51
"2016-01-28 04:40:00",219977,0.236,109.1,-2.435,67.59,0,0,871.424,0,43.2,2.759,189,1.559,2.293,0.007583338,0,51.27,59.2,33.61,35.5
"2016-01-28 04:50:00",219978,0.413,135.6,-2.261,66.9,0,0,871.4557,0,43.15,2.759,189,1.555,2.289,0.4057089,0,51.27,59.2,33.61,35.5
"2016-01-28 05:00:00",219979,0.443,68.21,-2.133,66.28,0,0,871.4247,0,43.15,2.759,189,1.562,2.296,0.4701766,0,51.27,59.2,33.61,35.5
"2016-01-28 05:10:00",219980,0.608,209.8,-2.174,67.05,0,0,871.5121,0,43.09,2.76,189,1.566,2.3,0.3981457,0,51.27,59.2,33.61,35.5
"2016-01-28 05:20:00",219981,0.321,245,-2.213,67.93,0,0,871.3397,0,42.9,2.762,188,1.547,2.279,0.2843826,0,51.27,59.2,33.61,35.5
"2016-01-28 05:30:00",219982,0.293,180.3,-2.083,67.14,0,0,871.4244,0,43.02,2.76,189,1.533,2.26,0.3753629,0,51.27,59.2,33.61,35.5
"2016-01-28 05:40:00",219983,0.959,191.1,-2.229,68.62,0,0,871.5325,0,43,2.762,189,1.499,2.239,0.2312736,0,51.33,59.2,33.62,35.5
"2016-01-28 05:50:00",219984,1.121,174.5,-2.278,69.25,0,0,871.5275,0,43.23,2.758,189,1.48,2.224,0.4890554,0,51.27,59.2,33.61,35.5
"2016-01-28 06:00:00",219985,0.836,193,-1.874,68.44,0,0,871.5525,0,42.89,2.761,188,1.47,2.2,0.701333,0,51.27,59.2,33.61,35.5
"2016-01-28 06:10:00",219986,0.642,192.4,-1.922,69.76,0,0,871.5552,0,42.76,2.763,189,1.472,2.198,0.2502018,0,51.27,59.2,33.61,35.5
"2016-01-28 06:20:00",219987,0.403,242.9,-2.181,72.8,0,0,871.5492,0,42.71,2.764,189,1.463,2.193,0.0416998,0,51.27,59.2,33.61,35.5
"2016-01-28 06:30:00",219988,0.428,250.5,-2.074,71.78,0,0,871.701,0,42.82,2.762,185,1.469,2.191,0.1478431,0,51.27,59.2,33.61,35.5
"2016-01-28 06:40:00",219989,0.436,290.8,-1.965,71.21,0,0,871.6806,0,43.12,2.757,189,1.473,2.19,0.3032674,0,51.27,59.2,33.61,35.5
"2016-01-28 06:50:00",219990,0.443,223.6,-1.934,72.41,0.003931629,0,871.683,0,42.5,2.765,189,1.494,2.19,0.6330701,0.112,51.27,59.2,33.61,35.5
"2016-01-28 07:00:00",219991,0.657,170.9,-2.526,75.35,0.8453003,0,871
"2016-01-28 07:00:00",219991,0.657,170.9,-2.526,75.35,0.8453003,0,871.844,0,43.1,2.762,189,1.48,2.19,1.660387,2.847,51.33,59.2,33.62,35.5
"2016-01-28 07:10:00",219992,0.258,249.9,-2.102,73.03,5.787358,0,872.0476,0,42.54,2.765,177,1.486,2.19,4.897764,0.883,51.27,59.2,33.61,35.5
"2016-01-28 07:20:00",219993,0.128,303.1,-2.009,73.18,14.95199,0,872.0495,0,42.61,2.763,189,1.483,2.19,10.36036,0.699,51.27,59.2,33.61,35.5
"2016-01-28 07:30:00",219994,0.351,296.4,-1.679,70.6,22.65798,0,872.0347,0,42.78,2.76,185,1.512,2.189,15.28845,0.676,51.27,59.2,33.61,35.5
"2016-01-28 07:40:00",219995,0.348,168.2,-1.505,70.23,30.09662,0,872.0495,0,42.48,2.765,172,1.534,2.188,20.01563,0.666,51.27,59.2,33.61,35.5
"2016-01-28 07:50:00",219996,0.728,175.9,-1.707,71.21,42.12741,0,872.0537,0,42.53,2.762,172,1.537,2.176,27.52907,0.653,51.33,59.2,33.62,35.5
"2016-01-28 08:00:00",219997,0.912,193,-1.279,68.74,57.18162,0,872.1506,0,42.66,2.759,189,1.534,2.163,38.3595,0.67,51.27,59.2,33.61,35.5
"2016-01-28 08:10:00",219998,0.486,176.1,-1.141,68.71,64.6871,0,872.3066,0,42.49,2.76,185,1.515,2.192,42.20341,0.652,51.33,59.2,33.62,35.5
"2016-01-28 08:20:00",219999,0.514,150.5,-0.944,67.28,76.80045,0,872.4161,0,42.57,2.759,189,1.499,2.199,50.06182,0.652,51.27,59.2,33.61,35.5
"2016-01-28 08:30:00",220000,0.727,181.2,-0.922,67.62,85.43823,0,872.5446,0,42.57,2.759,189,1.486,2.229,54.28102,0.635,51.33,59.2,33.62,35.5
"2016-01-28 08:40:00",220001,0.561,148.1,-0.799,67.18,110.5771,0,872.5551,0,42.46,2.759,186,1.487,2.227,69.89169,0.632,51.27,59.2,33.61,35.5
"2016-01-28 08:50:00",220002,0.818,185.6,-0.57,66.56,135.4092,0,872.5425,0,42.38,2.759,189,1.542,2.198,86.88981,0.641,51.33,59.2,33.62,35.5
"2016-01-28 09:00:00",220003,0.367,154.6,-0.457,65.29,135.3817,0,872.5573,0,42.34,2.758,191,1.543,2.189,85.51374,0.632,51.33,59.26,33.62,35.51
"2016-01-28 09:10:00",220004,0.494,186.8,-0.296,64.38,141.7195,0,872.6647,0,42.34,2.758,190,1.542,2.218,89.0468,0.628,51.27,59.2,33.61,35.5
"2016-01-28 09:20:00",220005,0.762,173.3,-0.333,65.69,162.7065,0,872.6162,0,42.41,2.758,189,1.542,2.22,101.7537,0.625,51.27,59.2,33.61,35.5
"2016-01-28 09:30:00",220006,0.898,171,-0.182,65.08,176.7661,0,872.3719,0,42.35,2.756,191,1.542,2.233,114.6918,0.649,51.27,59.2,33.61,35.5
"2016-01-28 09:40:00",220007,0.806,172.7,0.348,61.93,200.576,0,872.3087,0,42.32,2.755,190,1.587,2.234,129.8779,0.647,51.27,59.2,33.61,35.5
"2016-01-28 09:50:00",220008,0.595,190.6,0.622,61.35,218.4453,0,872.4203,0,42.3,2.753,190,1.599,2.238,139.3399,0.638,51.27,59.2,33.61,35.5
"2016-01-28 10:00:00",220009,0.507,279.2,0.553,60.91,178.2836,0,872.5494,0,42.17,2.755,187,1.586,2.274,112.4438,0.631,51.27,59.2,33.61,35.5
"2016-01-28 10:10:00",220010,0.8,175.1,0.498,60.87,117.5131,0,872.5031,0,42.48,2.753,190,1.577,2.268,87.96741,0.777,51.27,59.2,33.61,35.5
"2016-01-28 10:20:00",220011,0.71,147.6,0.886,59.96,86.81507,0,872.4763,0,42.47,2.75,190,1.561,2.288,104.6754,1.21,51.27,59.2,33.61,35.5
"2016-01-28 10:30:00",220012,1.056,151.6,1.222,59.12,113.6171,0,872.5052,0,42.22,2.751,190,1.502,2.254,128.6852,1.137,51.27,59.2,33.61,35.5
"2016-01-28 10:40:00",220013,0.815,171.9,1.248,58.81,142.1018,0,872.259,0,42.38,2.75,169,1.482,2.215,135.3958,1.067,51.33,59.2,33.62,35.5
"2016-01-28 10:50:00",220014,0.976,184.8,1.35,58.05,184.2802,0,872.055,0,42.25,2.75,169,1.466,2.197,146.1353,0.953,51.27,59.2,33.61,35.5
"2016-01-28 11:00:00",220015,0.621,184.5,1.544,60.1,280.5175,0,871.9545,0,42.35,2.749,169,1.46,2.17,161.8275,0.798,51.27,59.2,33.61,35.5
"2016-01-28 11:10:00",220016,0.986,163.8,1.53,57.74,241.0457,0,871.7435,0,42.08,2.75,169,1.49,2.147,155.1144,0.718,51.27,59.2,33.61,35.5
"2016-01-28 11:20:00",220017,0.864,158.4,1.892,57.76,275.2226,0,871.4633,0,41.69,2.753,182,1.547,2.146,174.9597,0.756,51.27,59.2,33.61,35.5
"2016-01-28 11:30:00",220018,0.658,150.3,1.897,57.3,214.8295,0,871.2653,0,42.04,2.75,168,1.586,2.146,179.8821,0.885,51.27,59.2,33.61,35.5
"2016-01-28 11:40:00",220019,0.345,280.5,2.041,56.52,179.225,0,871.2906,0,42.09,2.749,170,1.586,2.147,165.2393,0.964,51.33,59.2,33.62,35.5
"2016-01-28 11:50:00",220020,0.734,322.6,1.164,62.58,138.7155,0,871.2126,0,42.06,2.758,170,1.554,2.157,234.3341,1.89,51.27,59.2,33.61,35.5
"2016-01-28 12:00:00",220021,0.815,304.8,0.104,70.76,229.2772,0,871.5054,0,41.94,2.761,169,1.542,2.17,284.1097,1.768,51.27,59.2,33.61,35.5
"2016-01-28 12:10:00",220022,0.641,324.1,-0.067,72.68,331.5679,0,871.7602,0,42.1,2.759,168,1.535,2.234,205.5786,0.619,51.27,59.2,33.61,35.5
"2016-01-28 12:20:00",220023,0.416,311.7,0.225,72.65,276.3011,0,871.6953,0,41.9,2.759,170,1.501,2.246,169.14,0.612,51.27,59.2,33.61,35.5
"2016-01-28 12:30:00",220024,0.654,292.7,0.204,72.6,210.0575,0,871.6078,0,42.1,2.758,169,1.472,2.185,130.6099,0.622,51.27,59.2,33.61,35.5
"2016-01-28 12:40:00",220025,0.839,301.7,0.475,67.49,205.8425,0,871.6464,0,41.93,2.758,169,1.46,2.159,128.9022,0.626,51.27,59.2,33.61,35.5
"2016-01-28 12:50:00",220026,1.387,302.7,0.58,64.01,244.8381,0,871.4255,0,41.93,2.758,168,1.494,2.13,153.039,0.625,51.27,59.2,33.61,35.5
"2016-01-28 13:00:00",220027,0.347,272.1,0.909,64.93,249.2456,0,871.2483,0,41.7,2.759,168,1.503,2.115,154.5954,0.62,51.27,59.2,33.61,35.5
"2016-01-28 13:10:00",220028,1.178,263.3,0.753,64.29,216.8664,0,871.1733,0,41.94,2.757,168,1.516,2.113,135.5653,0.625,51.27,59.2,33.61,35.5
"2016-01-28 13:20:00",220029,0.605,246.1,0.848,64.16,176.5065,0,871.3766,0,41.74,2.758,170,1.543,2.074,111.1728,0.63,51.27,59.2,33.61,35.5
"2016-01-28 13:30:00",220030,0.53,147.7,0.867,63.24,139.4585,0,871.3231,0,41.73,2.758,170,1.567,2.104,88.52406,0.635,51.27,59.2,33.61,35.5
"2016-01-28 13:40:00",220031,0.647,271.9,0.811,63.66,140.5456,0,871.1744,0,41.71,2.759,169,1.591,2.132,89.36289,0.636,51.27,59.2,33.61,35.5
"2016-01-28 13:50:00",220032,0.264,203.4,0.915,63.63,184.7624,0,870.8566,0,41.71,2.758,170,1.602,2.145,116.1999,0.629,51.27,59.2,33.61,35.5
"2016-01-28 14:00:00",220033,0.386,200.4,1.152,64.93,222.936,0,870.9134,0,41.64,2.757,170,1.618,2.145,137.476,0.618,51.27,59.2,33.61,35.5
"2016-01-28 14:10:00",220034,0.553,275.3,1.289,62.83,252.1508,0,870.9661,0,41.64,2.757,168,1.595,2.148,146.7118,0.581,51.27,59.2,33.61,35.5
"2016-01-28 14:20:00",220035,1.142,292.3,1.346,60.87,193.2637,0,871.143,0,41.63,2.758,170,1.614,2.148,118.9309,0.616,51.27,59.2,33.61,35.5
"2016-01-28 14:30:00",220036,0.573,276.8,1.259,61.57,194.1167,0,871.2379,0,41.66,2.757,170,1.612,2.146,117.8775,0.607,51.27,59.2,33.61,35.5
"2016-01-28 14:40:00",220037,0.322,215.8,1.423,60.75,173.3962,0,871.2504,0,41.51,2.757,170,1.619,2.147,105.6069,0.609,51.27,59.2,33.61,35.5
"2016-01-28 14:50:00",220038,0.588,350.2,1.365,57.17,169.5839,0,871.4674,0,41.48,2.759,170,1.615,2.146,102.7724,0.606,51.27,59.2,33.61,35.5
"2016-01-28 15:00:00",220039,0.555,241.1,1.215,57.42,150.9936,0,871.4505,0,41.43,2.76,170,1.613,2.147,91.3431,0.605,51.27,59.2,33.61,35.5
"2016-01-28 15:10:00",220040,0.491,219.5,1.04,58.76,137.4066,0,871.4252,0,41.53,2.759,169,1.604,2.146,83.188,0.605,51.27,59.2,33.61,35.5
"2016-01-28 15:20:00",220041,0.636,285.3,0.945,57.21,141.4312,0,871.5496,0,41.6,2.76,170,1.582,2.156,86.55312,0.612,51.27,59.2,33.61,35.5
"2016-01-28 15:30:00",220042,0.369,71.16,0.906,58.31,106.5185,0,871.8633,0,41.38,2.762,170,1.52,2.18,65.41505,0.614,51.21,59.2,33.6,35.5
"2016-01-28 15:40:00",220043,0.644,287.9,0.557,54.76,103.9953,0,871.6212,0,41.43,2.763,170,1.47,2.19,63.39902,0.61,51.33,59.2,33.62,35.5
"2016-01-28 15:50:00",220044,0.64,280.2,0.41,55.62,72.2111,0,871.598,0,41.54,2.763,170,1.454,2.207,44.52332,0.617,51.27,59.2,33.61,35.5
"2016-01-28 16:00:00",220045,0.889,301.2,0.243,53.14,49.14819,0,871.6759,0,41.46,2.764,169,1.461,2.228,31.13487,0.634,51.27,59.2,33.61,35.5
"2016-01-28 16:10:00",220046,0.468,301.6,0.171,53.14,37.5342,0,871.7054,0,41.41,2.765,170,1.494,2.23,23.912,0.637,51.33,59.2,33.62,35.5
"2016-01-28 16:20:00",220047,0.611,254.2,0.226,52.11,71.33071,0,871.5579,0,41.12,2.767,169,1.513,2.23,44.01552,0.618,51.27,59.2,33.61,35.5
"2016-01-28 16:30:00",220048,0.359,276.2,0.126,53.77,36.14289,0,871.7012,0,41.35,2.766,169,1.523,2.213,22.41892,0.619,51.27,59.2,33.61,35.5
"2016-01-28 16:40:00",220049,0.828,252.5,-0.086,53.5,28.08974,0,871.7728,0,41.44,2.766,169,1.537,2.176,17.29925,0.616,51.33,59.2,33.62,35.5
"2016-01-28 16:50:00",220050,0.408,200.3,-0.239,58.29,19.56888,0,871.7812,0,41.52,2.766,169,1.539,2.153,11.93705,0.614,51.27,59.2,33.61,35.5
"2016-01-28 17:00:00",220051,0.768,158.9,-0.294,59.08,6.461386,0,871.7286,0,41.42,2.767,170,1.539,2.143,5.055247,0.79,51.27,59.2,33.61,35.5
"2016-01-28 17:10:00",220052,0.727,176.1,-0.334,60.09,3.478301,0,871.7117,0,41.23,2.77,168,1.529,2.101,3.039212,0.894,51.27,59.2,33.61,35.5
"2016-01-28 17:20:00",220053,0.794,282.4,-0.498,60.05,0.55417,0,871.6949,0,41.11,2.771,169,1.478,2.124,0.9057003,0.896,51.27,59.2,33.61,35.5
"2016-01-28 17:30:00",220054,0.875,193.1,-0.556,60.58,0,0,871.5369,0,41.43,2.77,170,1.455,2.099,0.007579082,0,51.33,59.2,33.62,35.5
"2016-01-28 17:40:00",220055,0.621,203.6,-0.892,64.52,0,0,871.4505,0,41.63,2.77,169,1.454,2.128,0,0,51.27,59.2,33.61,35.5
"2016-01-28 17:50:00",220056,1.175,184.5,-0.949,63.1,0,0,871.4779,0,41.49,2.769,169,1.476,2.158,0.007579881,0,51.27,59.2,33.61,35.5
"2016-01-28 18:00:00",220057,1.737,178.6,-0.465,59.88,0,0,871.6459,0,41.37,2.768,169,1.501,2.173,0.1781348,0,51.27,59.2,33.61,35.5
"2016-01-28 18:10:00",220058,1.472,177.4,-0.189,59.37,0,0,871.9415,0,41.1,2.769,169,1.491,2.196,0,0,51.27,59.2,33.61,35.5
"2016-01-28 18:20:00",220059,0.802,163.1,-0.011,59.49,0,0,872.0061,0,41.2,2.768,170,1.486,2.216,0,0,51.27,59.2,33.61,35.5
"2016-01-28 18:30:00",220060,0.619,154.6,0.19,59.82,0,0,871.9196,0,41.12,2.767,169,1.524,2.221,0.0151631,0,51.27,59.2,33.61,35.5
"2016-01-28 18:40:00",220061,1.153,160.3,0.263,61.37,0,0,871.7582,0,41.3,2.766,169,1.511,2.227,0,0,51.27,59.2,33.61,35.5
"2016-01-28 18:50:00",220062,0.837,131,0.468,61.25,0,0,871.5674,0,40.93,2.768,170,1.549,2.209,0.003790831,0,51.27,59.2,33.61,35.5
"2016-01-28 19:00:00",220063,0.97,174.8,0.377,62.46,0,0,871.8969,0,41.41,2.763,170,1.539,2.214,0,0,51.27,59.2,33.61,35.5
"2016-01-28 19:10:00",220064,1.009,163.8,0.615,62.5,0,0,871.8508,0,41.29,2.764,170,1.541,2.208,0.05307171,0,51.27,59.2,33.61,35.5
"2016-01-28 19:20:00",220065,0.958,154.5,0.682,62.48,0,0,871.902,0,41.06,2.766,169,1.518,2.208,0.003790837,0,51.27,59.2,33.61,35.5
"2016-01-28 19:30:00",220066,0.46,192.7,0.654,62.82,0,0,872.1448,0,41.01,2.767,169,1.487,2.221,0,0,51.27,59.2,33.61,35.5
"2016-01-28 19:40:00",220067,0.223,230.9,0.532,65.88,0,0,872.5222,0,40.85,2.769,170,1.532,2.206,0,0,51.27,59.2,33.61,35.5
"2016-01-28 19:50:00",220068,0.439,40.56,0.521,66.13,0,0,872.2656,0,41.16,2.765,170,1.549,2.202,0.01895418,0,51.27,59.2,33.61,35.5
"2016-01-28 20:00:00",220069,0.244,29.75,0.781,64.15,0,0,872.2041,0,40.9,2.767,169,1.549,2.192,0.06823505,0,51.27,59.2,33.61,35.5
"2016-01-28 20:10:00",220070,0.568,164.1,0.593,67.02,0,0,872.0175,0,40.89,2.768,170,1.555,2.192,0,0,51.27,59.2,33.61,35.5
"2016-01-28 20:20:00",220071,0.602,158.3,0.675,68.25,0,0,871.7986,0,41.14,2.765,169,1.551,2.192,0,0,51.27,59.2,33.61,35.5
"2016-01-28 20:30:00",220072,0.956,178,0.823,67.14,0,0,871.8646,0,40.95,2.766,185,1.542,2.194,0.01895418,0,51.27,59.2,33.61,35.5
"2016-01-28 20:40:00",220073,0.646,167.2,0.967,65.98,0,0,872.0137,0,41.01,2.765,174,1.526,2.194,0,0,51.27,59.2,33.61,35.5
"2016-01-28 20:50:00",220074,1.044,149.8,0.99,66.79,0,0,871.9094,0,40.87,2.766,189,1.538,2.192,0,0,51.27,59.2,33.61,35.5
"2016-01-28 21:00:00",220075,0.944,169.2,0.855,68.03,0,0,871.8129,0,40.8,2.768,191,1.534,2.191,0,0,51.27,59.2,33.61,35.5
"2016-01-28 21:10:00",220076,0.872,150.6,0.756,68.91,0,0,871.5908,0,41.1,2.765,189,1.54,2.19,0,0,51.27,59.2,33.61,35.5
"2016-01-28 21:20:00",220077,0.758,135.6,1.121,68.52,0,0,871.541,0,40.79,2.765,190,1.541,2.191,0.1213068,0,51.27,59.2,33.61,35.5
"2016-01-28 21:30:00",220078,0.839,173.7,1.309,67.98,0,0,871.5078,0,40.78,2.766,191,1.541,2.187,0.06823505,0,51.27,59.2,33.61,35.5
"2016-01-28 21:40:00",220079,0.531,164.8,1.127,70.06,0,0,871.2987,0,40.78,2.766,190,1.542,2.189,0,0,51.27,59.2,33.61,35.5
"2016-01-28 21:50:00",220080,0.602,172.4,1.254,69.28,0,0,871.2111,0,40.76,2.766,191,1.542,2.191,0,0,51.27,59.2,33.61,35.5
"2016-01-28 22:00:00",220081,0.53,168.5,1.274,70.26,0,0,871.1346,0,40.74,2.766,190,1.542,2.189,0.007581673,0,51.27,59.2,33.61,35.5
"2016-01-28 22:10:00",220082,0.131,152.5,1.336,69.88,0,0,871.3194,0,40.59,2.767,190,1.542,2.191,0,0,51.27,59.2,33.61,35.5
"2016-01-28 22:20:00",220083,0.495,54.02,1.341,69.41,0,0,871.2802,0,40.58,2.768,190,1.541,2.191,0,0,51.27,59.2,33.61,35.5
"2016-01-28 22:30:00",220084,0.48,323.7,1.212,69.93,0,0,871.4001,0,40.37,2.771,191,1.542,2.179,0,0,51.27,59.2,33.61,35.5
"2016-01-28 22:40:00",220085,0.406,313.5,0.454,75.11,0,0,871.4447,0,40.42,2.777,190,1.541,2.187,0,0,51.27,59.2,33.61,35.5
"2016-01-28 22:50:00",220086,0.098,0.311,-0.489,77.25,0,0,871.1141,0,40.65,2.776,191,1.54,2.194,0,0,51.27,59.2,33.61,35.5
"2016-01-28 23:00:00",220087,0.313,17.71,0.467,74.2,0.432479,0,871.1095,0,40.59,2.769,191,1.542,2.199,0.5382987,0.779,51.27,59.2,33.61,35.5
"2016-01-28 23:10:00",220088,0.413,329.4,0.953,71.63,0.2673506,0,871.077,0,40.5,2.771,190,1.541,2.193,0.4700637,1.229,51.27,59.2,33.61,35.5
"2016-01-28 23:20:00",220089,0.742,106.4,0.779,74.06,0,0,871.0213,0,40.55,2.77,191,1.537,2.193,0.2350319,0,51.27,59.2,33.61,35.5
"2016-01-28 23:30:00",220090,0.669,297.3,0.99,73.78,0,0,871.0313,0,40.57,2.769,192,1.539,2.191,0.2918944,0,51.27,59.2,33.61,35.5
"2016-01-28 23:40:00",220091,0.646,298.4,0.51,74.08,0.003931627,0,871.0576,0,40.27,2.779,192,1.542,2.191,0.1137251,0.032,51.27,59.2,33.61,35.5
"2016-01-28 23:50:00",220092,0.543,325.9,-0.863,76.39,0,0,871.0624,0,40.32,2.782,174,1.534,2.209,0,0,51.27,59.2,33.61,35.5
